Location: Torino
(45.0678°N, 7.6825°E)
Time: 10:32:50
(UTC+02:00)

ISS - Visible Passes

Search period start: 21 May 2026 00:00
Search period end: 31 May 2026 00:00
Orbit: 414 x 424 km, 51.6° (Epoch: 20 May)

Date Brightness Start Highest point End Pass type
(mag) Time Alt. Az. Time Alt. Az. Time Alt. Az.
21 May -1.2 00:15:56 10° W 00:16:41 14° W 00:16:41 14° W visible
21 May -2.8 21:51:04 10° NW 21:54:17 43° NNE 21:57:29 10° E visible
21 May -2.8 23:27:56 10° WNW 23:30:39 35° WSW 23:30:39 35° WSW visible
22 May -3.6 22:40:06 10° WNW 22:43:24 60° SW 22:44:39 33° SSE visible
23 May -3.8 21:52:20 10° WNW 21:55:41 87° NNE 21:58:40 13° ESE visible
23 May -1.4 23:30:08 10° W 23:31:36 14° WSW 23:31:36 14° WSW visible
24 May -2.1 22:41:47 10° W 22:44:29 23° SW 22:45:39 19° SSW visible
25 May -2.8 21:53:45 10° WNW 21:56:52 37° SW 21:59:44 11° SSE visible
27 May -1.3 21:55:49 10° W 21:57:47 15° SW 21:59:44 10° S visible
